owner,sensor,date,latitude,longitude,vertical_datum,direction_of_sea_water_velocity,sea_water_speed,upward_sea_water_velocity,qcFlag 
TABS,ioos:station:wmo:42043:1,2013-08-01T00:00:00Z,28.9818,-94.9186,2.0,32.03873369,9.142483251,-99999.0,'11133222,11111222,99999999' 
TABS,ioos:station:wmo:42043:1,2013-08-01T00:30:00Z,28.9818,-94.9186,2.0,23.39505161,8.814652574,-99999.0,'11133222,11111222,99999999' 
TABS,ioos:station:wmo:42043:1,2013-08-01T01:00:00Z,28.9818,-94.9186,2.0,34.23519295,13.70448832,-99999.0,'11111222,11111222,99999999' 
TABS,ioos:station:wmo:42043:1,2013-08-01T01:30:00Z,28.9818,-94.9186,2.0,39.52598983,17.0483137,-99999.0,'11111222,11111222,99999999' 
TABS,ioos:station:wmo:42043:1,2013-08-01T02:00:00Z,28.9818,-94.9186,2.0,44.22318749,18.25210399,-99999.0,'11111222,11111222,99999999' 
TABS,ioos:station:wmo:42043:1,2013-08-01T02:30:00Z,28.9818,-94.9186,2.0,57.15603221,18.03249567,-99999.0,'11111222,11111222,99999999' 
TABS,ioos:station:wmo:42043:1,2013-08-01T03:00:00Z,28.9818,-94.9186,2.0,51.69951322,18.1836685,-99999.0,'11111222,11111222,99999999' 
TABS,ioos:station:wmo:42043:1,2013-08-01T03:30:00Z,28.9818,-94.9186,2.0,59.58684048,19.99079788,-99999.0,'11111222,11111222,99999999' 
TABS,ioos:station:wmo:42043:1,2013-08-01T04:00:00Z,28.9818,-94.9186,2.0,56.27358219,21.81081612,-99999.0,'11111222,11111222,99999999' 
TABS,ioos:station:wmo:42043:1,2013-08-01T04:30:00Z,28.9818,-94.9186,2.0,63.51933119,24.31055738,-99999.0,'11111222,11111222,99999999' 
TABS,ioos:station:wmo:42043:1,2013-08-01T05:00:00Z,28.9818,-94.9186,2.0,62.77505515,22.90779998,-99999.0,'11111222,11111222,99999999' 
TABS,ioos:station:wmo:42043:1,2013-08-01T05:30:00Z,28.9818,-94.9186,2.0,64.875558,23.48166306,-99999.0,'11111222,11111222,99999999' 
TABS,ioos:station:wmo:42043:1,2013-08-01T06:00:00Z,28.9818,-94.9186,2.0,65.98296434,23.43927687,-99999.0,'11111222,11111222,99999999' 
TABS,ioos:station:wmo:42043:1,2013-08-01T06:30:00Z,28.9818,-94.9186,2.0,78.55496298,23.28297232,-99999.0,'11111222,11111222,99999999' 
TABS,ioos:station:wmo:42043:1,2013-08-01T07:00:00Z,28.9818,-94.9186,2.0,79.69945965,23.93576613,-99999.0,'11111222,11111222,99999999' 
TABS,ioos:station:wmo:42043:1,2013-08-01T07:30:00Z,28.9818,-94.9186,2.0,88.80386312,22.51490617,-99999.0,'11111222,11111222,99999999' 
TABS,ioos:station:wmo:42043:1,2013-08-01T08:00:00Z,28.9818,-94.9186,2.0,87.4506754,22.48225078,-99999.0,'11111222,11111222,99999999' 
TABS,ioos:station:wmo:42043:1,2013-08-01T08:30:00Z,28.9818,-94.9186,2.0,88.35642174,23.35961044,-99999.0,'11111222,11111222,99999999' 
TABS,ioos:station:wmo:42043:1,2013-08-01T09:00:00Z,28.9818,-94.9186,2.0,94.69223271,20.65924006,-99999.0,'11111222,11111222,99999999' 
TABS,ioos:station:wmo:42043:1,2013-08-01T09:30:00Z,28.9818,-94.9186,2.0,92.75042803,21.46472688,-99999.0,'11111222,11111222,99999999' 
TABS,ioos:station:wmo:42043:1,2013-08-01T10:00:00Z,28.9818,-94.9186,2.0,89.79445597,22.3001435,-99999.0,'11111222,11111222,99999999' 
TABS,ioos:station:wmo:42043:1,2013-08-01T10:30:00Z,28.9818,-94.9186,2.0,90.40178616,21.39052594,-99999.0,'11111222,11111222,99999999' 
TABS,ioos:station:wmo:42043:1,2013-08-01T11:00:00Z,28.9818,-94.9186,2.0,87.1844499,22.5972786,-99999.0,'11111222,11111222,99999999' 
TABS,ioos:station:wmo:42043:1,2013-08-01T11:30:00Z,28.9818,-94.9186,2.0,87.94667515,20.65326124,-99999.0,'11111222,11111222,99999999' 
TABS,ioos:station:wmo:42043:1,2013-08-01T12:00:00Z,28.9818,-94.9186,2.0,92.50454792,19.90901806,-99999.0,'11111222,11111222,99999999' 
TABS,ioos:station:wmo:42043:1,2013-08-01T12:30:00Z,28.9818,-94.9186,2.0,93.41935734,18.4428333,-99999.0,'11111222,11111222,99999999' 
TABS,ioos:station:wmo:42043:1,2013-08-01T13:00:00Z,28.9818,-94.9186,2.0,82.90620496,18.21946487,-99999.0,'11111222,11111222,99999999' 
TABS,ioos:station:wmo:42043:1,2013-08-01T13:30:00Z,28.9818,-94.9186,2.0,91.63562002,17.1669945,-99999.0,'11111222,11111222,99999999' 
TABS,ioos:station:wmo:42043:1,2013-08-01T14:00:00Z,28.9818,-94.9186,2.0,99.63183191,15.00147326,-99999.0,'11111222,11111222,99999999' 
TABS,ioos:station:wmo:42043:1,2013-08-01T14:30:00Z,28.9818,-94.9186,2.0,96.8328356,16.05402442,-99999.0,'11111222,11111222,99999999' 
TABS,ioos:station:wmo:42043:1,2013-08-01T15:00:00Z,28.9818,-94.9186,2.0,98.14781919,18.27446853,-99999.0,'11111222,11111222,99999999' 
TABS,ioos:station:wmo:42043:1,2013-08-01T15:30:00Z,28.9818,-94.9186,2.0,97.64002783,19.1802659,-99999.0,'11111222,11111222,99999999' 
TABS,ioos:station:wmo:42043:1,2013-08-01T16:00:00Z,28.9818,-94.9186,2.0,102.12149,22.4300914,-99999.0,'11111222,11111222,99999999' 
TABS,ioos:station:wmo:42043:1,2013-08-01T16:30:00Z,28.9818,-94.9186,2.0,93.68366436,26.30434565,-99999.0,'11111222,11111222,99999999' 
TABS,ioos:station:wmo:42043:1,2013-08-01T17:00:00Z,28.9818,-94.9186,2.0,92.82532702,35.5031562,-99999.0,'11111222,11111222,99999999' 
TABS,ioos:station:wmo:42043:1,2013-08-01T17:30:00Z,28.9818,-94.9186,2.0,84.85758397,33.91651515,-99999.0,'11111222,11111222,99999999' 
TABS,ioos:station:wmo:42043:1,2013-08-01T18:00:00Z,28.9818,-94.9186,2.0,87.03688072,31.53215819,-99999.0,'11111222,11111222,99999999' 
TABS,ioos:station:wmo:42043:1,2013-08-01T18:30:00Z,28.9818,-94.9186,2.0,81.48672963,34.04512447,-99999.0,'11111222,11111222,99999999' 
TABS,ioos:station:wmo:42043:1,2013-08-01T19:00:00Z,28.9818,-94.9186,2.0,87.88759367,26.85825199,-99999.0,'11111222,11111222,99999999' 
TABS,ioos:station:wmo:42043:1,2013-08-01T19:30:00Z,28.9818,-94.9186,2.0,96.90150244,21.3043681,-99999.0,'11111222,11111222,99999999' 
TABS,ioos:station:wmo:42043:1,2013-08-01T20:00:00Z,28.9818,-94.9186,2.0,104.5039522,17.52863372,-99999.0,'11111222,11111222,99999999' 
TABS,ioos:station:wmo:42043:1,2013-08-01T20:30:00Z,28.9818,-94.9186,2.0,128.2121047,16.39249828,-99999.0,'11111222,11111222,99999999' 
TABS,ioos:station:wmo:42043:1,2013-08-01T21:00:00Z,28.9818,-94.9186,2.0,137.4004027,16.20696764,-99999.0,'11111222,11111222,99999999' 
TABS,ioos:station:wmo:42043:1,2013-08-01T21:30:00Z,28.9818,-94.9186,2.0,134.1208789,15.67133051,-99999.0,'11111222,11111222,99999999' 
TABS,ioos:station:wmo:42043:1,2013-08-01T22:00:00Z,28.9818,-94.9186,2.0,131.7167659,13.70501003,-99999.0,'11111222,11111222,99999999' 
TABS,ioos:station:wmo:42043:1,2013-08-01T22:30:00Z,28.9818,-94.9186,2.0,109.1073589,13.4722307,-99999.0,'11111222,11111222,99999999' 
TABS,ioos:station:wmo:42043:1,2013-08-01T23:00:00Z,28.9818,-94.9186,2.0,107.7501298,15.8757677,-99999.0,'11111222,11111222,99999999' 
TABS,ioos:station:wmo:42043:1,2013-08-01T23:30:00Z,28.9818,-94.9186,2.0,104.0523548,17.21517935,-99999.0,'11111222,11111222,99999999' 
TABS,ioos:station:wmo:42043:1,2013-08-02T00:00:00Z,28.9818,-94.9186,2.0,85.14484294,15.59596102,-99999.0,'11111222,11111222,99999999' 
TABS,ioos:station:wmo:42043:1,2013-08-02T00:30:00Z,28.9818,-94.9186,2.0,79.32225822,16.35315872,-99999.0,'11111222,11111222,99999999' 
TABS,ioos:station:wmo:42043:1,2013-08-02T01:00:00Z,28.9818,-94.9186,2.0,79.4641832,11.75823541,-99999.0,'11111222,11111222,99999999' 
TABS,ioos:station:wmo:42043:1,2013-08-02T01:30:00Z,28.9818,-94.9186,2.0,73.34549374,19.64406526,-99999.0,'11111222,11111222,99999999' 
TABS,ioos:station:wmo:42043:1,2013-08-02T02:00:00Z,28.9818,-94.9186,2.0,73.77984423,20.04800489,-99999.0,'11111222,11111222,99999999' 
TABS,ioos:station:wmo:42043:1,2013-08-02T02:30:00Z,28.9818,-94.9186,2.0,79.12689526,24.43874178,-99999.0,'11111222,11111222,99999999' 
TABS,ioos:station:wmo:42043:1,2013-08-02T03:00:00Z,28.9818,-94.9186,2.0,74.56936438,24.61738004,-99999.0,'11111222,11111222,99999999' 
TABS,ioos:station:wmo:42043:1,2013-08-02T03:30:00Z,28.9818,-94.9186,2.0,74.62166759,26.09429056,-99999.0,'11111222,11111222,99999999' 
TABS,ioos:station:wmo:42043:1,2013-08-02T04:00:00Z,28.9818,-94.9186,2.0,69.09721437,26.8789918,-99999.0,'11111222,11111222,99999999' 
TABS,ioos:station:wmo:42043:1,2013-08-02T04:30:00Z,28.9818,-94.9186,2.0,66.17958502,23.34897214,-99999.0,'11111222,11111222,99999999' 
TABS,ioos:station:wmo:42043:1,2013-08-02T05:00:00Z,28.9818,-94.9186,2.0,59.26812941,26.28065829,-99999.0,'11111222,11111222,99999999' 
TABS,ioos:station:wmo:42043:1,2013-08-02T05:30:00Z,28.9818,-94.9186,2.0,57.07684016,26.73339672,-99999.0,'11111222,11111222,99999999' 
TABS,ioos:station:wmo:42043:1,2013-08-02T06:00:00Z,28.9818,-94.9186,2.0,56.66855254,28.80891876,-99999.0,'11111222,11111222,99999999' 
TABS,ioos:station:wmo:42043:1,2013-08-02T06:30:00Z,28.9818,-94.9186,2.0,56.29360983,29.06629147,-99999.0,'11111222,11111222,99999999' 
TABS,ioos:station:wmo:42043:1,2013-08-02T07:00:00Z,28.9818,-94.9186,2.0,57.12109234,30.17316689,-99999.0,'11111222,11111222,99999999' 
TABS,ioos:station:wmo:42043:1,2013-08-02T07:30:00Z,28.9818,-94.9186,2.0,56.97292446,29.24575183,-99999.0,'11111222,11111222,99999999' 
TABS,ioos:station:wmo:42043:1,2013-08-02T08:00:00Z,28.9818,-94.9186,2.0,60.04480128,30.4011184,-99999.0,'11111222,11111222,99999999' 
TABS,ioos:station:wmo:42043:1,2013-08-02T08:30:00Z,28.9818,-94.9186,2.0,62.66398901,29.24594502,-99999.0,'11111222,11111222,99999999' 
TABS,ioos:station:wmo:42043:1,2013-08-02T09:00:00Z,28.9818,-94.9186,2.0,67.06466604,30.87046809,-99999.0,'11111222,11111222,99999999' 
TABS,ioos:station:wmo:42043:1,2013-08-02T09:30:00Z,28.9818,-94.9186,2.0,71.02584343,31.24784953,-99999.0,'11111222,11111222,99999999' 
TABS,ioos:station:wmo:42043:1,2013-08-02T10:00:00Z,28.9818,-94.9186,2.0,68.83762659,29.63881914,-99999.0,'11111222,11111222,99999999' 
TABS,ioos:station:wmo:42043:1,2013-08-02T10:30:00Z,28.9818,-94.9186,2.0,61.82084107,28.41828461,-99999.0,'11111222,11111222,99999999' 
TABS,ioos:station:wmo:42043:1,2013-08-02T11:00:00Z,28.9818,-94.9186,2.0,65.34161865,33.60434496,-99999.0,'11111222,11111222,99999999' 
TABS,ioos:station:wmo:42043:1,2013-08-02T11:30:00Z,28.9818,-94.9186,2.0,66.92521224,35.26111172,-99999.0,'11111222,11111222,99999999' 
TABS,ioos:station:wmo:42043:1,2013-08-02T12:00:00Z,28.9818,-94.9186,2.0,64.88381373,34.49119453,-99999.0,'11111222,11111222,99999999' 
TABS,ioos:station:wmo:42043:1,2013-08-02T12:30:00Z,28.9818,-94.9186,2.0,64.74632386,34.19843564,-99999.0,'11111222,11111222,99999999' 
TABS,ioos:station:wmo:42043:1,2013-08-02T13:00:00Z,28.9818,-94.9186,2.0,64.08193499,31.68710305,-99999.0,'11111222,11111222,99999999' 
TABS,ioos:station:wmo:42043:1,2013-08-02T13:30:00Z,28.9818,-94.9186,2.0,65.31301604,31.7960768,-99999.0,'11111222,11111222,99999999' 
TABS,ioos:station:wmo:42043:1,2013-08-02T14:00:00Z,28.9818,-94.9186,2.0,65.48680653,31.47718539,-99999.0,'11111222,11111222,99999999' 
TABS,ioos:station:wmo:42043:1,2013-08-02T14:30:00Z,28.9818,-94.9186,2.0,65.03782313,32.29698593,-99999.0,'11111222,11111222,99999999' 
TABS,ioos:station:wmo:42043:1,2013-08-02T15:00:00Z,28.9818,-94.9186,2.0,66.5271768,29.34863711,-99999.0,'11111222,11111222,99999999' 
TABS,ioos:station:wmo:42043:1,2013-08-02T15:30:00Z,28.9818,-94.9186,2.0,60.60426081,28.70589138,-99999.0,'11111222,11111222,99999999' 
TABS,ioos:station:wmo:42043:1,2013-08-02T16:00:00Z,28.9818,-94.9186,2.0,61.8417426,26.70002996,-99999.0,'11111222,11111222,99999999' 
TABS,ioos:station:wmo:42043:1,2013-08-02T16:30:00Z,28.9818,-94.9186,2.0,62.98204874,24.3247076,-99999.0,'11111222,11111222,99999999' 
TABS,ioos:station:wmo:42043:1,2013-08-02T17:00:00Z,28.9818,-94.9186,2.0,62.56235454,19.3800129,-99999.0,'11111222,11111222,99999999' 
TABS,ioos:station:wmo:42043:1,2013-08-02T17:30:00Z,28.9818,-94.9186,2.0,67.48693095,17.34156856,-99999.0,'11111222,11111222,99999999' 
TABS,ioos:station:wmo:42043:1,2013-08-02T18:00:00Z,28.9818,-94.9186,2.0,73.85276605,14.81442878,-99999.0,'11111222,11111222,99999999' 
TABS,ioos:station:wmo:42043:1,2013-08-02T18:30:00Z,28.9818,-94.9186,2.0,74.56387117,13.6006066,-99999.0,'11111222,11111222,99999999' 
TABS,ioos:station:wmo:42043:1,2013-08-02T19:00:00Z,28.9818,-94.9186,2.0,87.95901027,9.265878264,-99999.0,'11133222,11111222,99999999' 
TABS,ioos:station:wmo:42043:1,2013-08-02T19:30:00Z,28.9818,-94.9186,2.0,99.49762415,5.333104162,-99999.0,'11133222,11111222,99999999' 
TABS,ioos:station:wmo:42043:1,2013-08-02T20:00:00Z,28.9818,-94.9186,2.0,102.1194394,4.858281589,-99999.0,'11133222,11111222,99999999' 
TABS,ioos:station:wmo:42043:1,2013-08-02T20:30:00Z,28.9818,-94.9186,2.0,144.1565822,4.576734644,-99999.0,'11133222,11111222,99999999' 
TABS,ioos:station:wmo:42043:1,2013-08-02T21:00:00Z,28.9818,-94.9186,2.0,175.0474315,4.286000467,-99999.0,'11133222,11111222,99999999' 
TABS,ioos:station:wmo:42043:1,2013-08-02T21:30:00Z,28.9818,-94.9186,2.0,184.5489913,5.547476904,-99999.0,'11133222,11111222,99999999' 
TABS,ioos:station:wmo:42043:1,2013-08-02T22:00:00Z,28.9818,-94.9186,2.0,196.567745,5.435678431,-99999.0,'11133222,11111222,99999999' 
TABS,ioos:station:wmo:42043:1,2013-08-02T22:30:00Z,28.9818,-94.9186,2.0,245.6487845,2.546546681,-99999.0,'11133222,11111222,99999999' 
TABS,ioos:station:wmo:42043:1,2013-08-02T23:00:00Z,28.9818,-94.9186,2.0,293.1836906,4.9279306,-99999.0,'11133222,11111222,99999999' 
TABS,ioos:station:wmo:42043:1,2013-08-02T23:30:00Z,28.9818,-94.9186,2.0,325.6622307,5.885745492,-99999.0,'11133222,11111222,99999999' 
TABS,ioos:station:wmo:42043:1,2013-08-03T00:00:00Z,28.9818,-94.9186,2.0,333.5589699,10.35301888,-99999.0,'11111222,11111222,99999999' 
TABS,ioos:station:wmo:42043:1,2013-08-03T00:30:00Z,28.9818,-94.9186,2.0,326.2157858,11.77907467,-99999.0,'11111222,11111222,99999999' 
TABS,ioos:station:wmo:42043:1,2013-08-03T01:00:00Z,28.9818,-94.9186,2.0,336.6344117,13.94348952,-99999.0,'11111222,11111222,99999999' 
TABS,ioos:station:wmo:42043:1,2013-08-03T01:30:00Z,28.9818,-94.9186,2.0,349.8876546,13.32704018,-99999.0,'11111222,11111222,99999999' 
TABS,ioos:station:wmo:42043:1,2013-08-03T02:00:00Z,28.9818,-94.9186,2.0,349.48249,15.88692544,-99999.0,'11111222,11111222,99999999' 
TABS,ioos:station:wmo:42043:1,2013-08-03T02:30:00Z,28.9818,-94.9186,2.0,350.8321843,19.20534301,-99999.0,'11111222,11111222,99999999' 
TABS,ioos:station:wmo:42043:1,2013-08-03T03:00:00Z,28.9818,-94.9186,2.0,353.1277983,16.88129142,-99999.0,'11111222,11111222,99999999' 
TABS,ioos:station:wmo:42043:1,2013-08-03T03:30:00Z,28.9818,-94.9186,2.0,357.254322,20.87396704,-99999.0,'11111222,11111222,99999999' 
TABS,ioos:station:wmo:42043:1,2013-08-03T04:00:00Z,28.9818,-94.9186,2.0,355.9766332,22.37514916,-99999.0,'11111222,11111222,99999999' 
TABS,ioos:station:wmo:42043:1,2013-08-03T04:30:00Z,28.9818,-94.9186,2.0,355.6983437,21.33009376,-99999.0,'11111222,11111222,99999999' 
TABS,ioos:station:wmo:42043:1,2013-08-03T05:00:00Z,28.9818,-94.9186,2.0,3.027317694,21.0193292,-99999.0,'11111222,11111222,99999999' 
TABS,ioos:station:wmo:42043:1,2013-08-03T05:30:00Z,28.9818,-94.9186,2.0,6.998929016,19.69676369,-99999.0,'11111222,11111222,99999999' 
TABS,ioos:station:wmo:42043:1,2013-08-03T06:00:00Z,28.9818,-94.9186,2.0,10.64026517,18.95591992,-99999.0,'11111222,11111222,99999999' 
TABS,ioos:station:wmo:42043:1,2013-08-03T06:30:00Z,28.9818,-94.9186,2.0,21.61726021,17.31803684,-99999.0,'11111222,11111222,99999999' 
TABS,ioos:station:wmo:42043:1,2013-08-03T07:00:00Z,28.9818,-94.9186,2.0,24.42598037,15.69471886,-99999.0,'11111222,11111222,99999999' 
TABS,ioos:station:wmo:42043:1,2013-08-03T07:30:00Z,28.9818,-94.9186,2.0,37.06009152,16.27808957,-99999.0,'11111222,11111222,99999999' 
TABS,ioos:station:wmo:42043:1,2013-08-03T08:00:00Z,28.9818,-94.9186,2.0,47.01634095,14.87259224,-99999.0,'11111222,11111222,99999999' 
TABS,ioos:station:wmo:42043:1,2013-08-03T08:30:00Z,28.9818,-94.9186,2.0,54.35679134,15.13546828,-99999.0,'11111222,11111222,99999999' 
TABS,ioos:station:wmo:42043:1,2013-08-03T09:00:00Z,28.9818,-94.9186,2.0,46.8993685,13.65466221,-99999.0,'11111222,11111222,99999999' 
TABS,ioos:station:wmo:42043:1,2013-08-03T09:30:00Z,28.9818,-94.9186,2.0,57.49608705,12.0589925,-99999.0,'11111222,11111222,99999999' 
TABS,ioos:station:wmo:42043:1,2013-08-03T10:00:00Z,28.9818,-94.9186,2.0,61.15876727,10.69684533,-99999.0,'11111222,11111222,99999999' 
TABS,ioos:station:wmo:42043:1,2013-08-03T10:30:00Z,28.9818,-94.9186,2.0,69.92960718,9.528662026,-99999.0,'11133222,11111222,99999999' 
TABS,ioos:station:wmo:42043:1,2013-08-03T11:00:00Z,28.9818,-94.9186,2.0,74.346426,9.71014418,-99999.0,'11133222,11111222,99999999' 
TABS,ioos:station:wmo:42043:1,2013-08-03T11:30:00Z,28.9818,-94.9186,2.0,66.65387095,7.645998954,-99999.0,'11133222,11111222,99999999' 
TABS,ioos:station:wmo:42043:1,2013-08-03T12:00:00Z,28.9818,-94.9186,2.0,72.8534791,11.53257994,-99999.0,'11111222,11111222,99999999' 
TABS,ioos:station:wmo:42043:1,2013-08-03T12:30:00Z,28.9818,-94.9186,2.0,77.36429835,12.20561346,-99999.0,'11111222,11111222,99999999' 
TABS,ioos:station:wmo:42043:1,2013-08-03T13:00:00Z,28.9818,-94.9186,2.0,76.3062793,15.41826514,-99999.0,'11111222,11111222,99999999' 
TABS,ioos:station:wmo:42043:1,2013-08-03T13:30:00Z,28.9818,-94.9186,2.0,80.1282051,16.33181251,-99999.0,'11111222,11111222,99999999' 
TABS,ioos:station:wmo:42043:1,2013-08-03T14:00:00Z,28.9818,-94.9186,2.0,75.72374833,16.7884633,-99999.0,'11111222,11111222,99999999' 
TABS,ioos:station:wmo:42043:1,2013-08-03T14:30:00Z,28.9818,-94.9186,2.0,87.26429238,17.38981886,-99999.0,'11111222,11111222,99999999' 
TABS,ioos:station:wmo:42043:1,2013-08-03T15:00:00Z,28.9818,-94.9186,2.0,76.81494278,14.20445353,-99999.0,'11111222,11111222,99999999' 
TABS,ioos:station:wmo:42043:1,2013-08-03T15:30:00Z,28.9818,-94.9186,2.0,82.71443619,13.72077622,-99999.0,'11111222,11111222,99999999' 
TABS,ioos:station:wmo:42043:1,2013-08-03T16:00:00Z,28.9818,-94.9186,2.0,67.65553266,13.12553618,-99999.0,'11111222,11111222,99999999' 
TABS,ioos:station:wmo:42043:1,2013-08-03T16:30:00Z,28.9818,-94.9186,2.0,62.21576271,14.50194814,-99999.0,'11111222,11111222,99999999' 
TABS,ioos:station:wmo:42043:1,2013-08-03T17:00:00Z,28.9818,-94.9186,2.0,62.99366666,12.77279922,-99999.0,'11111222,11111222,99999999' 
TABS,ioos:station:wmo:42043:1,2013-08-03T17:30:00Z,28.9818,-94.9186,2.0,60.41697465,15.37416664,-99999.0,'11111222,11111222,99999999' 
TABS,ioos:station:wmo:42043:1,2013-08-03T18:00:00Z,28.9818,-94.9186,2.0,72.9376549,11.48552567,-99999.0,'11111222,11111222,99999999' 
TABS,ioos:station:wmo:42043:1,2013-08-03T18:30:00Z,28.9818,-94.9186,2.0,74.44681536,12.64296247,-99999.0,'11111222,11111222,99999999' 
TABS,ioos:station:wmo:42043:1,2013-08-03T19:00:00Z,28.9818,-94.9186,2.0,72.31939194,10.56924784,-99999.0,'11111222,11111222,99999999' 
TABS,ioos:station:wmo:42043:1,2013-08-03T19:30:00Z,28.9818,-94.9186,2.0,91.46745405,10.93358587,-99999.0,'11111222,11111222,99999999' 
TABS,ioos:station:wmo:42043:1,2013-08-03T20:00:00Z,28.9818,-94.9186,2.0,71.25733192,14.12926042,-99999.0,'11111222,11111222,99999999' 
TABS,ioos:station:wmo:42043:1,2013-08-03T20:30:00Z,28.9818,-94.9186,2.0,73.76666811,13.6648015,-99999.0,'11111222,11111222,99999999' 
TABS,ioos:station:wmo:42043:1,2013-08-03T21:00:00Z,28.9818,-94.9186,2.0,74.31880289,11.32137801,-99999.0,'11111222,11111222,99999999' 
TABS,ioos:station:wmo:42043:1,2013-08-03T21:30:00Z,28.9818,-94.9186,2.0,83.6647399,12.86858578,-99999.0,'11111222,11111222,99999999' 
TABS,ioos:station:wmo:42043:1,2013-08-03T22:00:00Z,28.9818,-94.9186,2.0,73.47584674,11.28611979,-99999.0,'11111222,11111222,99999999' 
TABS,ioos:station:wmo:42043:1,2013-08-03T22:30:00Z,28.9818,-94.9186,2.0,59.24067691,10.57810002,-99999.0,'11111222,11111222,99999999' 
TABS,ioos:station:wmo:42043:1,2013-08-03T23:00:00Z,28.9818,-94.9186,2.0,51.51406506,11.84271084,-99999.0,'11111222,11111222,99999999' 
TABS,ioos:station:wmo:42043:1,2013-08-03T23:30:00Z,28.9818,-94.9186,2.0,41.13904902,14.9113715,-99999.0,'11111222,11111222,99999999' 
TABS,ioos:station:wmo:42043:1,2013-08-04T00:00:00Z,28.9818,-94.9186,2.0,43.49540259,15.61830336,-99999.0,'11111222,11111222,99999999' 
TABS,ioos:station:wmo:42043:1,2013-08-04T00:30:00Z,28.9818,-94.9186,2.0,41.55648911,12.94929342,-99999.0,'11111222,11111222,99999999' 
TABS,ioos:station:wmo:42043:1,2013-08-04T01:00:00Z,28.9818,-94.9186,2.0,47.61615537,13.63308476,-99999.0,'11111222,11111222,99999999' 
TABS,ioos:station:wmo:42043:1,2013-08-04T01:30:00Z,28.9818,-94.9186,2.0,59.14204895,16.72800048,-99999.0,'11111222,11111222,99999999' 
TABS,ioos:station:wmo:42043:1,2013-08-04T02:00:00Z,28.9818,-94.9186,2.0,68.8256449,14.42382058,-99999.0,'11111222,11111222,99999999' 
TABS,ioos:station:wmo:42043:1,2013-08-04T02:30:00Z,28.9818,-94.9186,2.0,77.21238533,16.80685872,-99999.0,'11111222,11111222,99999999' 
TABS,ioos:station:wmo:42043:1,2013-08-04T03:00:00Z,28.9818,-94.9186,2.0,75.00611029,17.12298163,-99999.0,'11111222,11111222,99999999' 
TABS,ioos:station:wmo:42043:1,2013-08-04T03:30:00Z,28.9818,-94.9186,2.0,78.78511154,20.10389266,-99999.0,'11111222,11111222,99999999' 
TABS,ioos:station:wmo:42043:1,2013-08-04T04:00:00Z,28.9818,-94.9186,2.0,77.12569568,23.92135657,-99999.0,'11111222,11111222,99999999' 
TABS,ioos:station:wmo:42043:1,2013-08-04T04:30:00Z,28.9818,-94.9186,2.0,81.29112243,23.37955731,-99999.0,'11111222,11111222,99999999' 
TABS,ioos:station:wmo:42043:1,2013-08-04T05:00:00Z,28.9818,-94.9186,2.0,81.73565646,24.14069179,-99999.0,'11111222,11111222,99999999' 
TABS,ioos:station:wmo:42043:1,2013-08-04T05:30:00Z,28.9818,-94.9186,2.0,83.82626587,25.8499207,-99999.0,'11111222,11111222,99999999' 
TABS,ioos:station:wmo:42043:1,2013-08-04T06:00:00Z,28.9818,-94.9186,2.0,87.28250513,27.84130924,-99999.0,'11111222,11111222,99999999' 
TABS,ioos:station:wmo:42043:1,2013-08-04T06:30:00Z,28.9818,-94.9186,2.0,89.56782122,27.84079201,-99999.0,'11111222,11111222,99999999' 
TABS,ioos:station:wmo:42043:1,2013-08-04T07:00:00Z,28.9818,-94.9186,2.0,90.33958167,30.37053342,-99999.0,'11111222,11111222,99999999' 
TABS,ioos:station:wmo:42043:1,2013-08-04T07:30:00Z,28.9818,-94.9186,2.0,85.66506724,29.63477855,-99999.0,'11111222,11111222,99999999' 
TABS,ioos:station:wmo:42043:1,2013-08-04T08:00:00Z,28.9818,-94.9186,2.0,91.88544907,32.21744248,-99999.0,'11111222,11111222,99999999' 
TABS,ioos:station:wmo:42043:1,2013-08-04T08:30:00Z,28.9818,-94.9186,2.0,95.98294251,34.5381311,-99999.0,'11111222,11111222,99999999' 
TABS,ioos:station:wmo:42043:1,2013-08-04T09:00:00Z,28.9818,-94.9186,2.0,96.76754486,34.79242015,-99999.0,'11111222,11111222,99999999' 
TABS,ioos:station:wmo:42043:1,2013-08-04T09:30:00Z,28.9818,-94.9186,2.0,97.02213838,38.69021711,-99999.0,'11111222,11111222,99999999' 
TABS,ioos:station:wmo:42043:1,2013-08-04T10:00:00Z,28.9818,-94.9186,2.0,101.2182239,39.21935492,-99999.0,'11111222,11111222,99999999' 
TABS,ioos:station:wmo:42043:1,2013-08-04T10:30:00Z,28.9818,-94.9186,2.0,100.9155525,39.60659162,-99999.0,'11111222,11111222,99999999' 
TABS,ioos:station:wmo:42043:1,2013-08-04T11:00:00Z,28.9818,-94.9186,2.0,100.0590586,39.6190169,-99999.0,'11111222,11111222,99999999' 
TABS,ioos:station:wmo:42043:1,2013-08-04T11:30:00Z,28.9818,-94.9186,2.0,104.2649954,36.44369356,-99999.0,'11111222,11111222,99999999' 
TABS,ioos:station:wmo:42043:1,2013-08-04T12:00:00Z,28.9818,-94.9186,2.0,100.6680315,37.8135637,-99999.0,'11111222,11111222,99999999' 
TABS,ioos:station:wmo:42043:1,2013-08-04T12:30:00Z,28.9818,-94.9186,2.0,101.5255724,40.63947342,-99999.0,'11111222,11111222,99999999' 
TABS,ioos:station:wmo:42043:1,2013-08-04T13:00:00Z,28.9818,-94.9186,2.0,96.64540832,37.93487182,-99999.0,'11111222,11111222,99999999' 
TABS,ioos:station:wmo:42043:1,2013-08-04T13:30:00Z,28.9818,-94.9186,2.0,97.46791769,38.54696486,-99999.0,'11111222,11111222,99999999' 
TABS,ioos:station:wmo:42043:1,2013-08-04T14:00:00Z,28.9818,-94.9186,2.0,97.80131695,40.66638046,-99999.0,'11111222,11111222,99999999' 
TABS,ioos:station:wmo:42043:1,2013-08-04T14:30:00Z,28.9818,-94.9186,2.0,97.27300715,42.73382969,-99999.0,'11111222,11111222,99999999' 
TABS,ioos:station:wmo:42043:1,2013-08-04T15:00:00Z,28.9818,-94.9186,2.0,94.03597169,42.7660578,-99999.0,'11111222,11111222,99999999' 
TABS,ioos:station:wmo:42043:1,2013-08-04T15:30:00Z,28.9818,-94.9186,2.0,96.8826116,43.39269985,-99999.0,'11111222,11111222,99999999' 
TABS,ioos:station:wmo:42043:1,2013-08-04T16:00:00Z,28.9818,-94.9186,2.0,95.91236973,44.07445065,-99999.0,'11111222,11111222,99999999' 